Flag for Greenland Weather past 2 weeks in Qaanaaq, Greenland

Now
46 °F

Overcast.


Feels Like: 39 °F
Forecast: 35 / 38 °F
Wind: 20 mph from South

Location: Thule A. B.

Current Time: Jul 29, 2014 at 2:28:59 PM

Latest Report: Jul 29, 2014 at 1:58 PM


Visibility: N/A

Pressure: 30.08 "Hg

Humidity: 66%

Dew point: 36 °F

Location of QaanaaqLocation

Historic Weather in Qaanaaq — Graph

°F

Qaanaaq temperature yesterday

Maximum temperature yesterday: 45 °F (at 6:58 PM)
Minimum temperature yesterday: 36 °F (at 12:58 AM)
Average temperature yesterday: 39 °F

Past Weeks' High & Low Weather Summary

 TemperatureHumidityPressure
High55 °F (Jul 20, 9:58 AM)93% (Jul 28, 3:58 AM)30.08 "Hg (Jul 28, 3:58 AM)
Low36 °F (Jul 15, 8:58 PM)36% (Jul 20, 9:58 AM)29.38 "Hg (Jul 21, 2:58 AM)
Average43 °F76%29.77 "Hg
* Reported Jul 14 12:58 PM — Jul 29 12:58 PM, Qaanaaq, Weather by CustomWeather, © 2014

Note: Actual official high and low records may vary slightly from our data, if they occured in-between our weather recording intervals... More about our weather records

Advertising

Qaanaaq weather history for previous 24 hours

 ConditionsComfort  
Time TempWeatherWind HumidityBarometerVisibility
12:58 PM
Jul 29
46 °FMore clouds than sun.16 mph66%30.07 "HgN/A
11:58 AM45 °FCloudy.15 mph76%30.06 "HgN/A
10:58 AM45 °FOvercast.7 mph76%30.07 "HgN/A
9:58 AM43 °FOvercast.7 mph87%30.05 "HgN/A
9:02 AM43 °FMostly cloudy.21 mph76%30.08 "HgN/A
8:58 AM43 °FLight rain. Mostly cloudy.18 mph76%30.03 "HgN/A
8:01 AM39 °FOvercast.8 mph87%30.08 "HgN/A
7:58 AM41 °FOvercast.8 mph81%30.03 "HgN/A
6:58 AM41 °FCloudy.7 mph81%30.01 "HgN/A
5:58 AM41 °FLight rain. Overcast.8 mph81%30.01 "HgN/A
4:58 AM37 °FOvercast.2 mph93%30.01 "HgN/A
3:58 AM39 °FMostly cloudy.9 mph87%29.99 "HgN/A
2:58 AM43 °FOvercast.8 mph76%29.98 "HgN/A
1:58 AM43 °FOvercast.No wind81%29.97 "HgN/A
12:58 AM39 °FOvercast.1 mph87%29.96 "HgN/A
11:58 PM
Jul 28
41 °FOvercast.2 mph87%29.95 "HgN/A
10:58 PM39 °FOvercast.No wind87%29.95 "HgN/A
9:58 PM41 °FOvercast.6 mph87%29.94 "HgN/A
8:58 PM41 °FMore clouds than sun.5 mph87%29.93 "HgN/A
7:58 PM43 °FPartly sunny.5 mph81%29.93 "HgN/A
6:58 PM45 °FPassing clouds.3 mph76%29.92 "HgN/A
5:58 PM44 °FScattered clouds.5 mph77%29.92 "HgN/A
4:58 PM43 °FPartly sunny.5 mph81%29.92 "HgN/A
3:58 PM43 °FBroken clouds.3 mph76%29.92 "HgN/A
2:58 PM41 °FOvercast.5 mph81%29.92 "HgN/A
Weather by CustomWeather, © 2014

See weather overviewHow to use our weather pages